DW8102 Weather Reports


Display with metric or nautical units.
time (UTC)temp
F
wind
direction
speed
MPH
gust
MPH
rain 1hr
in
rain 24hr
in
rain mn
in
humidity
%
barometer
mb
20260906033011 51 221 0.0 1.0 0.00 0.00 0.00 97 1010.2
20260906031609 51 221 0.0 0.0 0.00 0.00 0.00 97 1010.0
20260906030006 51 222 0.0 0.0 0.00 0.00 0.00 97 1009.8
20260906024505 50 226 0.0 1.0 0.00 0.00 0.00 97 1009.7
20260906023003 50 218 0.0 0.0 0.00 0.00 0.00 97 1009.6
20260906021501 50 246 0.0 0.0 0.00 0.00 0.00 96 1009.3
20260906020101 50 248 0.0 0.0 0.00 0.00 0.00 96 1009.2
20260906014558 50 295 0.0 0.0 0.00 0.00 0.00 96 1009.1
20260906013056 50 295 0.0 0.0 0.00 0.00 0.00 96 1009.0
20260906011554 51 295 0.0 0.0 0.00 0.00 0.00 96 1008.8
20260906010133 50 295 0.0 0.0 0.00 0.00 0.00 95 1008.7
20260906004608 51 295 0.0 0.0 0.00 0.00 0.00 95 1008.5
20260906003047 51 295 0.0 0.0 0.00 0.00 0.00 95 1008.2
20260906001559 51 295 0.0 0.0 0.00 0.00 0.00 95 1008.1
20260906000046 52 295 0.0 0.0 0.00 0.00 0.00 95 1007.9
20260905234543 51 296 0.0 0.0 0.00 0.00 0.00 94 1007.6
20260905233042 51 304 0.0 0.0 0.00 0.00 0.00 94 1007.5
20260905231540 51 303 0.0 0.0 0.00 0.00 0.00 93 1007.3
20260905230037 52 303 0.0 0.0 0.00 0.00 0.00 92 1007.2
20260905224533 52 303 0.0 0.0 0.00 0.00 0.00 92 1007.0
20260905223041 53 303 0.0 0.0 0.00 0.00 0.00 91 1006.9
20260905221524 53 304 0.0 0.0 0.00 0.00 0.00 90 1006.6
20260905220023 54 304 0.0 0.0 0.00 0.00 0.00 90 1006.3
20260905214519 54 303 0.0 1.0 0.00 0.00 0.00 91 1006.3
20260905213019 53 149 0.0 0.0 0.00 0.00 0.00 90 1006.0
20260905211515 54 149 0.0 0.0 0.00 0.01 0.00 87 1005.6
20260905210012 55 149 0.0 0.0 0.00 0.01 0.00 87 1005.5
20260905204508 56 338 0.0 0.0 0.00 0.01 0.00 84 1005.2
20260905203003 57 338 0.0 2.0 0.00 0.01 0.00 84 1005.1
20260905201559 57 354 0.0 2.0 0.00 0.09 0.00 84 1004.8
20260905200118 57 341 1.0 2.0 0.00 0.09 0.00 84 1004.5
20260905194554 57 8 0.0 1.0 0.00 0.09 0.00 84 1004.3
20260905193053 57 330 0.0 3.0 0.00 0.09 0.00 87 1004.2
20260905191552 58 316 0.0 3.0 0.00 0.13 0.00 86 1004.1
20260905190050 58 317 0.0 2.0 0.00 0.13 0.00 86 1004.0
20260905184552 58 285 0.0 3.0 0.00 0.13 0.00 86 1003.7
20260905183048 58 277 1.0 3.0 0.00 0.13 0.00 85 1003.5
20260905181548 59 277 0.0 3.0 0.00 0.25 0.00 85 1003.2
20260905180045 59 271 1.0 3.0 0.00 0.25 0.00 84 1003.0
20260905174541 59 273 1.0 4.0 0.00 0.25 0.00 82 1002.7
20260905173046 59 267 2.0 6.0 0.00 0.25 0.00 82 1002.6
20260905171539 59 221 0.0 4.0 0.00 0.25 0.00 81 1002.3
20260905170037 60 285 1.0 4.0 0.00 0.25 0.00 77 1002.2
20260905164533 62 266 1.0 4.0 0.00 0.25 0.00 73 1001.9
20260905163033 62 282 1.0 4.0 0.00 0.25 0.00 72 1001.9
20260905161530 62 270 1.0 4.0 0.00 0.34 0.00 70 1001.7
20260905160029 60 256 1.0 7.0 0.00 0.34 0.00 72 1001.7
20260905154529 60 276 1.0 6.0 0.00 0.34 0.00 77 1001.6
20260905153034 59 207 0.0 4.0 0.00 0.34 0.00 79 1001.4
20260905151528 59 239 3.0 8.0 0.00 0.40 0.00 81 1001.4
20260905150026 60 267 0.0 4.0 0.00 0.40 0.00 77 1001.2
20260905144525 60 276 2.0 5.0 0.00 0.40 0.00 76 1001.1
20260905143032 60 273 1.0 5.0 0.00 0.40 0.00 76 1001.0
20260905141520 61 283 1.0 5.0 0.00 0.43 0.00 75 1000.8
20260905140019 60 271 1.0 5.0 0.00 0.43 0.00 75 1000.8
20260905134526 61 285 1.0 4.0 0.00 0.43 0.00 75 1000.5
20260905133015 61 278 0.0 3.0 0.00 0.43 0.00 73 1000.4
20260905131514 62 262 0.0 3.0 0.00 0.43 0.00 71 1000.4
20260905130013 62 281 0.0 2.0 0.00 0.43 0.00 70 1000.3
20260905124515 62 277 0.0 2.0 0.00 0.43 0.00 71 1000.2
20260905123031 62 281 0.0 3.0 0.00 0.43 0.00 73 1000.1
20260905121508 61 250 0.0 1.0 0.00 0.43 0.00 76 1000.1
20260905120004 60 232 1.0 3.0 0.00 0.43 0.00 77 1000.1
20260905114600 59 285 1.0 3.0 0.00 0.43 0.00 80 1000.0
20260905113106 58 264 0.0 3.0 0.00 0.43 0.00 82 1000.0
20260905111600 57 266 2.0 5.0 0.00 0.43 0.43 84 1000.0
20260905110055 57 277 2.0 4.0 0.00 0.43 0.43 85 999.8
20260905104554 57 278 1.0 4.0 0.00 0.43 0.43 85 999.7
20260905103059 57 281 1.0 4.0 0.00 0.43 0.43 88 999.5
20260905101553 56 288 1.0 3.0 0.00 0.43 0.43 89 999.4
20260905100057 56 252 1.0 2.0 0.00 0.43 0.43 89 999.3
20260905094549 56 281 0.0 3.0 0.00 0.43 0.43 91 999.1
20260905093048 55 271 0.0 2.0 0.00 0.43 0.43 92 999.0
20260905091553 55 283 0.0 3.0 0.00 0.43 0.43 92 998.8
20260905090046 55 322 0.0 2.0 0.00 0.43 0.43 93 998.7
20260905084558 55 285 0.0 3.0 0.00 0.43 0.43 94 998.6
20260905083049 54 280 0.0 2.0 0.00 0.43 0.43 94 998.5
20260905081544 54 275 1.0 3.0 0.00 0.43 0.43 94 998.4
20260905080109 54 283 0.0 2.0 0.00 0.43 0.43 95 998.2
20260905074540 54 282 0.0 2.0 0.00 0.43 0.43 94 998.1
20260905073038 54 281 0.0 2.0 0.00 0.43 0.43 94 997.9
20260905071538 54 308 0.0 2.0 0.00 0.43 0.43 95 997.7
20260905070048 53 308 0.0 1.0 0.00 0.43 0.43 95 997.5
20260905064546 53 281 0.0 2.0 0.00 0.43 0.43 95 997.5
20260905063041 53 319 0.0 0.0 0.00 0.43 0.43 95 997.3
20260905061539 53 319 0.0 1.0 0.00 0.43 0.43 95 997.1
20260905060047 53 322 0.0 1.0 0.00 0.43 0.43 96 996.9
20260905054538 53 348 0.0 1.0 0.00 0.43 0.43 96 996.8
20260905053035 53 354 0.0 1.0 0.00 0.43 0.43 96 996.6
20260905051549 53 359 0.0 2.0 0.00 0.43 0.43 96 996.5
20260905050032 0 0.0 0.0 0.00 0.43 0.43 996.4
20260905044537 0 0.0 0.0 0.00 0.43 0.43 996.2
20260905043027 0 0.0 0.0 0.00 0.43 0.43 996.1
20260905041522 0 0.0 0.0 0.00 0.43 0.43 996.0
20260905040023 0 0.0 0.0 0.00 0.43 0.43 996.0
20260905034516 52 332 0.0 1.0 0.00 0.43 0.43 96 995.9